Fayetteville, NC

5:28 AM EDT on April 27, 2017 (GMT -0400)
Fayetteville Regional-Grannis

Weather History for KFAY - July, 2013

Change the Weather History Date:

Tuesday, July 16, 2013

  Actual Average Record
Temperature  
Mean Temperature 85 °F 82 °F  
Max Temperature 96 °F 91 °F 103 °F (1937)
Min Temperature 73 °F 72 °F 58 °F (1926)
Degree Days  
Heating Degree Days 0 0  
Month to date heating degree days 0 0  
Since 1 June heating degree days 0 0  
Since 1 July heating degree days 0 0  
Cooling Degree Days 20 17  
Month to date cooling degree days 246 261  
Year to date cooling degree days 890 941  
Since 1 June cooling degree days 641 657  
Growing Degree Days 33 (Base 50)    
Moisture  
Dew Point 71 °F    
Average Humidity 69    
Maximum Humidity 93    
Minimum Humidity 44    
Precipitation  
Precipitation 0.00 in 0.22 in 2.46 in (1927)
Month to date precipitation 6.24 2.87  
Year to date precipitation 28.16 22.89  
Sea Level Pressure  
Sea Level Pressure 30.22 in    
Wind  
Wind Speed 3 mph (West)    
Max Wind Speed 8 mph    
Max Gust Speed 15 mph    
Visibility 10 miles    
Events      
T = Trace of Precipitation, MM = Missing Value Source: NWS Daily Summary

Daily Weather History Graph

Daily Weather History Graph

Search for Another Location

Airport or City:

Trip Planner

Search our weather history database for the weather conditions in past years. The results will help you decide how hot, cold, wet, or windy it might be!

Date:

Astronomy

Jul. 16, 2013 Rise Set
Actual Time 6:13 AM EDT 8:29 PM EDT
Civil Twilight 5:44 AM EDT 8:58 PM EDT
Nautical Twilight 5:09 AM EDT 9:33 PM EDT
Astronomical Twilight 4:30 AM EDT 10:11 PM EDT
Moon 2:14 PM EDT (7/16) 12:35 AM EDT (7/16)
Length of Visible Light 15h 13m
Length of Day
14h 15m
First Quarter, 56% of the Moon is Illuminated
Jul 16
First Quarter
Jul 22
Full
Jul 29
Last Quarter
Aug 6
New
Aug 14
First Quarter

Hourly Weather History & Observations

Time (EDT) Temp. Heat Index Dew Point Humidity Pressure Visibility Wind Dir Wind Speed Gust Speed Precip Events Conditions
12:53 AM 75.9 °F - 72.0 °F 87% 30.26 in 10.0 mi SSW 4.6 mph - N/A   Clear
1:53 AM 75.0 °F - 71.1 °F 87% 30.25 in 10.0 mi SW 3.5 mph - N/A   Clear
2:53 AM 73.9 °F - 71.1 °F 91% 30.25 in 10.0 mi SW 4.6 mph - N/A   Clear
3:53 AM 73.9 °F - 71.1 °F 91% 30.24 in 10.0 mi SW 3.5 mph - N/A   Clear
4:53 AM 73.9 °F - 71.1 °F 91% 30.24 in 10.0 mi Calm Calm - N/A   Clear
5:53 AM 73.9 °F - 72.0 °F 93% 30.25 in 10.0 mi Calm Calm - N/A   Clear
6:53 AM 75.0 °F - 72.0 °F 90% 30.26 in 10.0 mi Calm Calm - N/A   Clear
7:53 AM 79.0 °F - 73.0 °F 82% 30.27 in 10.0 mi West 4.6 mph - N/A   Clear
8:53 AM 82.0 °F 87.4 °F 73.0 °F 74% 30.27 in 10.0 mi WNW 5.8 mph - N/A   Clear
9:53 AM 86.0 °F 93.0 °F 73.0 °F 65% 30.27 in 10.0 mi NW 5.8 mph - N/A   Clear
10:53 AM 88.0 °F 95.6 °F 73.0 °F 61% 30.26 in 10.0 mi WNW 3.5 mph - N/A   Scattered Clouds
11:53 AM 90.0 °F 95.4 °F 70.0 °F 52% 30.24 in 10.0 mi Variable 3.5 mph - N/A   Partly Cloudy
12:53 PM 91.9 °F 97.4 °F 70.0 °F 48% 30.23 in 10.0 mi Variable 3.5 mph - N/A   Clear
1:53 PM 91.9 °F 95.4 °F 66.9 °F 44% 30.22 in 10.0 mi Calm Calm - N/A   Partly Cloudy
2:53 PM 93.0 °F 99.0 °F 70.0 °F 47% 30.20 in 10.0 mi ENE 5.8 mph - N/A   Partly Cloudy
3:53 PM 93.0 °F 97.9 °F 69.1 °F 45% 30.19 in 10.0 mi Calm Calm - N/A   Partly Cloudy
4:53 PM 91.0 °F 96.6 °F 70.0 °F 50% 30.18 in 10.0 mi ENE 3.5 mph - N/A   Partly Cloudy
5:53 PM 93.0 °F 97.4 °F 68.0 °F 44% 30.17 in 10.0 mi Calm Calm - N/A   Clear
6:53 PM 93.0 °F 99.0 °F 70.0 °F 47% 30.16 in 10.0 mi Variable 3.5 mph - N/A   Clear
7:53 PM 89.1 °F 97.0 °F 73.0 °F 59% 30.17 in 10.0 mi South 3.5 mph - N/A   Clear
8:53 PM 86.0 °F 93.0 °F 73.0 °F 65% 30.19 in 10.0 mi WSW 5.8 mph - N/A   Clear
9:53 PM 82.0 °F 87.9 °F 73.9 °F 76% 30.19 in 10.0 mi SW 4.6 mph - N/A   Clear
10:53 PM 80.1 °F 84.2 °F 73.0 °F 79% 30.20 in 10.0 mi North 5.8 mph - N/A   Clear
11:53 PM 80.1 °F 84.5 °F 73.9 °F 81% 30.19 in 10.0 mi Calm Calm - N/A   Clear